Theta_e
310 303 299 300 308 310 310 310 308 306 310 309 308 318 316 318 337 335 335 340 345 355 354 355 352 352 352 351 350 348 347 346
303 300 305 307 311 313 308 308 308 308 308 311 316 318 320 323 337 335 335 340 347 354 355 355 353 353 352 351 350 348 347 344
300 303 307 311 314 312 308 309 307 307 308 308 318 321 321 320 328 329 334 340 349 353 353 355 352 350 349 348 347 345 345 343
296 302 308 310 311 313 309 309 306 308 307 308 316 318 317 317 322 332 334 338 342 351 351 348 348 346 346 344 344 343 342 341
302 304 306 309 313 309 310 310 306 311 306 310 312 316 317 316 322 323 326 327 330 334 340 347 346 346 344 342 340 338 336 335
302 302 304 309 310 310 310 311 313 314 307 306 313 316 315 315 316 318 321 324 324 326 330 330 333 342 341 341 337 336 335 335
302 303 306 310 304 311 314 311 312 312 313 316 317 315 312 310 311 310 314 314 317 321 324 325 325 330 340 338 337 337 335 336
311 309 307 309 306 307 308 308 311 312 316 317 316 314 311 310 310 308 311 312 319 322 323 323 328 324 327 328 328 328 329 326
311 312 312 311 310 309 307 304 308 309 312 314 313 312 311 310 308 310 313 318 319 322 323 322 323 322 321 321 322 324 325 323
312 314 312 309 313 309 309 308 312 313 315 314 312 311 310 309 311 311 315 318 321 322 322 323 323 322 320 322 323 322 323 322
314 313 312 312 310 309 309 312 312 313 313 313 312 311 311 310 312 312 316 319 321 322 323 323 322 321 320 323 323 322 321 323
313 312 312 309 310 309 311 313 310 312 311 311 311 311 309 312 312 314 316 318 319 321 322 321 321 321 322 323 324 324 323 323
308 309 308 310 305 306 311 311 309 308 310 310 311 311 311 314 314 313 316 318 318 318 321 321 322 322 323 324 325 323 324 324
303 306 308 306 300 308 310 309 308 309 309 308 309 312 312 314 314 312 316 317 319 324 322 321 321 321 324 324 324 324 323 324
299 306 306 304 302 307 310 308 308 308 309 309 309 308 312 316 315 315 316 316 318 319 322 322 321 324 324 325 324 324 324 324
297 303 304 302 302 306 310 309 307 308 308 309 309 309 314 316 315 314 314 318 318 319 322 321 323 323 323 324 324 324 324 324
300 305 303 302 303 306 308 306 305 306 307 308 308 313 317 317 316 315 315 317 318 319 320 323 322 322 320 320 321 321 323 325
301 304 301 302 302 306 308 308 308 308 307 307 309 313 316 315 314 314 314 316 318 319 321 324 322 323 323 321 322 322 322 323
297 301 302 301 299 303 308 310 309 309 308 310 310 311 314 314 313 313 313 316 318 320 322 324 323 322 321 320 320 320 321 320
300 297 291 301 290 298 303 304 305 306 305 308 310 312 315 313 312 313 314 316 321 321 323 324 324 321 317 316 316 317 320 319
Wind_Speed
3 3 5 5 5 5 6 8 6 4 3 6 7 2 10 6 12 12 13 13 12 18 16 14 14 14 13 14 14 15 15 14
2 9 9 5 12 9 6 3 3 4 7 4 5 12 9 12 13 12 9 11 12 17 16 16 16 15 14 14 14 14 14 14
4 7 8 8 11 8 4 4 5 2 3 2 2 7 11 12 12 12 8 9 13 19 18 18 17 15 14 13 10 7 10 12
4 7 6 7 7 8 5 3 5 6 8 7 5 12 9 10 10 13 13 10 12 18 18 17 15 14 13 12 12 12 11 10
6 13 13 4 6 5 7 3 2 10 7 2 5 10 9 10 12 11 12 12 9 9 12 14 13 12 12 13 14 13 12 11
5 6 18 6 7 6 0 8 2 11 8 5 8 8 8 9 12 10 8 8 7 6 6 5 5 11 13 14 13 12 10 10
8 6 13 8 4 6 4 3 3 2 9 6 13 10 8 5 3 4 4 6 6 7 7 6 6 6 11 12 12 11 10 10
13 10 11 14 4 5 3 7 2 3 3 10 16 15 12 8 9 4 5 5 7 8 7 6 4 4 2 3 4 4 5 6
16 16 15 19 14 5 5 7 5 9 8 9 10 9 11 9 6 8 7 5 7 7 7 7 4 4 2 1 2 3 6 6
22 21 16 16 18 8 7 10 7 12 16 13 13 13 12 10 10 11 8 8 8 8 7 6 4 2 2 3 3 3 5 6
21 20 19 17 17 12 7 10 8 11 14 18 16 15 10 9 9 11 11 10 10 8 7 6 4 3 3 3 3 5 4 5
19 21 17 14 18 5 10 8 9 12 16 17 16 18 7 11 12 11 10 9 9 8 7 6 3 3 4 3 5 4 4 5
17 17 18 14 17 7 11 7 12 12 14 14 17 12 17 19 17 14 9 10 9 8 7 6 4 4 3 4 4 4 4 6
9 14 17 7 21 15 12 9 12 11 9 12 15 17 12 15 13 9 10 9 8 7 8 7 3 2 2 3 3 4 4 4
19 12 14 8 18 12 10 9 12 10 10 12 14 6 7 12 14 11 10 9 8 7 8 5 1 1 3 4 3 3 3 3
18 17 8 11 13 13 21 17 14 11 9 9 8 10 12 13 11 10 9 9 8 6 7 4 1 2 2 2 3 2 3 3
18 17 6 10 15 17 11 6 7 10 11 11 6 7 11 12 11 10 8 8 8 8 5 3 2 1 1 2 3 2 2 4
20 18 5 14 22 20 8 8 10 13 8 6 7 12 12 10 7 8 9 8 8 7 6 3 2 2 2 2 3 3 2 4
20 14 9 8 11 14 10 8 6 7 8 10 18 17 13 13 10 9 9 8 8 8 6 4 2 0 2 1 1 2 2 3
20 11 8 8 7 6 7 7 5 7 6 10 14 14 14 12 9 9 8 7 8 7 6 4 4 2 1 2 1 2 2 2
Wind_Direction
162 185 200 217 253 325 268 232 191 105 38 130 168 48 146 160 162 142 163 175 180 179 180 183 191 202 206 215 221 228 229 229
190 240 257 239 277 228 292 348 279 131 70 51 269 157 170 147 150 151 153 162 169 171 177 184 194 199 207 220 234 233 230 232
260 260 266 279 256 269 321 284 101 143 174 96 280 141 138 133 147 146 151 158 164 172 180 186 191 190 196 206 215 209 227 234
263 263 275 298 272 6 304 271 161 88 136 186 155 137 169 132 135 150 153 166 174 177 180 183 185 187 187 191 197 204 212 224
262 283 300 252 268 281 243 232 238 152 137 251 203 182 155 127 141 158 164 170 175 174 184 182 177 178 185 196 204 208 213 217
249 277 284 283 331 295 160 246 326 148 168 192 217 178 125 139 161 171 170 173 171 142 153 140 189 192 201 209 210 213 216 218
246 229 262 295 294 283 273 273 238 228 157 203 142 123 125 153 205 144 146 160 157 140 132 163 206 221 221 227 225 223 226 225
235 258 269 278 253 252 298 313 359 54 24 123 134 155 162 178 208 163 165 144 137 126 149 175 152 119 188 234 249 218 207 215
266 259 260 273 284 259 288 311 203 191 167 139 149 170 175 201 190 180 154 148 152 149 166 159 133 130 133 196 227 194 212 209
259 264 267 264 273 252 244 245 246 184 166 162 174 183 191 193 163 152 158 154 160 170 160 159 133 162 207 190 183 205 227 232
257 264 267 271 258 238 246 260 207 179 166 179 183 193 201 166 155 155 156 166 171 162 162 157 157 202 218 229 217 223 229 221
264 266 271 269 269 228 259 259 198 164 190 189 188 196 157 157 164 167 158 162 169 165 164 142 176 208 233 241 248 255 248 240
268 267 269 288 274 235 244 219 215 191 203 197 205 186 183 173 171 166 162 161 163 147 143 133 172 218 231 249 243 252 250 254
260 269 266 204 270 271 254 216 224 224 222 209 212 201 177 177 159 160 142 156 149 119 121 142 157 219 235 245 241 254 259 254
271 253 266 218 269 267 263 218 223 226 236 213 223 187 169 156 155 151 146 143 122 124 128 134 186 285 289 270 239 252 260 262
254 251 251 269 270 275 273 231 220 228 240 222 208 204 157 149 148 137 137 131 137 125 134 120 104 6 326 269 266 259 261 255
257 262 249 253 263 259 266 249 232 242 247 234 181 145 147 144 141 125 127 135 138 131 143 116 68 12 316 264 256 271 263 282
271 272 267 280 273 254 244 228 222 224 249 199 151 143 147 141 132 141 151 148 136 137 143 124 134 220 213 244 249 240 291 297
251 275 267 273 280 271 274 236 275 255 239 173 166 153 156 157 152 141 148 155 146 150 139 132 183 194 344 349 312 4 313 304
248 258 257 156 268 291 247 239 232 269 191 166 170 152 150 148 153 156 163 145 141 144 133 161 166 152 151 223 262 251 276 295